Track ONEWEB-0023 now! 10-day predictions ONEWEB-0023 is classified as:
1 45136U 20008F 22224.78239472 .00000677 00000-0 19036-2 0 9994 2 45136 87.8890 315.4816 0001619 117.8989 242.2303 13.10375133124908